STARLINK-5795, 56039

Orbit data source: Space-Track

STARLINK-5795, 56039 is a payload satellite owned by SpaceX/Seattle (US) in LEO that was launched on Fri, 24 Mar 2023 UTC via an FALCON 9 launch vehicle from the Air Force Eastern Test Range (AFETR). Payload-class satellites include a variety of spacecraft equipped with specific instruments for various scientific and technological missions. These include communications satellites like Starlink; space stations such as the ISS; scientific satellites like the Hubble; Earth observation satellites from companies like Planet Labs, Umbra, and HawkEye 360; GPS; miniature CubeSats for education and research; and military/defense satellites.

Loading next visibility...
Identifier
56039, 2023-042BF
Orbit
LEO
Country
Flag of USUS
Related business
Manufacturer
SpaceX/Seattle
Mission
Operational Commercial Communications
Bus & Motor
STARLINK, Unknown motor
Mass
305 kg wet, ~290 kg dry
Launch date (UTC)
2023-03-24 (3 years ago)
Launch vehicle
FALCON 9
Launch site
Air Force Eastern Test Range (AFETR)
Object type
Payload
Rocket body
Debris
Shape & HBR
Box + 1 Pan, 10.1 m
Radar Cross Section
11.087 m², Large (>1 m²)

Expand to show TLE details & history
Last TLE update: 2 days ago

TLE from 2 days ago
0 STARLINK-5795
1 56039U 23042BF  26171.04713106  .00007339  00000-0  27629-3 0  9994
2 56039  43.0036 172.9229 0001132 271.5547  88.5175 15.27538552178857
Epoch: 2026-06-20T01:07Z
TLE epoch observation values (Epoch: 2026-06-20T01:07:52.123Z)
Latitude
-0.00002°
Longitude
-112.31167°
Altitude
482.929 km
Speed
7.626 km/s
True Right ascension
11h 31m 41s
True Declination
0° 00' 00"
Sunlit
Object was in daylight at epoch
Visualization orbit readout
Latitude
Unknown
Longitude
Unknown
Altitude
Unknown
Speed
Unknown
Apparent Right ascension
Unknown
Apparent Declination
Unknown
Sunlit
N/A
Visualization observer readout
Local Sidereal Time
21:27:52
Azimuth
Unknown
Elevation
Unknown
Doppler factor
Unknown
Orbital elements
Apogee altitude
485.895 km
Perigee altitude
484.341 km
Semi-major axis
6,863.255 km
Eccentricity
0.00011
Inclination
43.0036°
RAAN
172.9229°
Arg. of periapsis
271.5547°
True anomaly
88.53047°
Mean anomaly
88.5175°
Eccentric anomaly
88.52398°
Mean motion
3.81723 °/min
Orbital period
94.31 mins
BSTAR
0.00027629
Loading maneuver chart data...
Computing Atmospheric mass density...
Loading historical data...
Loading historical data...
Loading historical data...
Loading historical data...
Loading historical data...
Loading historical data...
Loading historical data...

Documentation

Showing up to 5 results
|